DW3693 Weather Reports


Display with metric or nautical units.
time (UTC)temp
F
wind
direction
speed
MPH
gust
MPH
rain 1hr
in
rain 24hr
in
rain mn
in
humidity
%
barometer
mb
20260506204016 68 270 6.0 13.0 0.00 0.00 0.00 58 1017.5
20260506203057 68 270 7.0 17.0 0.00 0.00 0.00 59 1017.4
20260506202017 68 270 6.0 18.0 0.00 0.00 0.00 59 1017.4
20260506201038 68 270 6.0 21.0 0.00 0.00 0.00 61 1017.3
20260506200037 68 158 5.0 23.0 0.00 0.00 0.00 61 1017.4
20260506195017 68 270 5.0 12.0 0.00 0.00 0.00 60 1017.5
20260506194058 68 293 4.0 15.0 0.00 0.00 0.00 61 1017.4
20260506193018 68 45 3.0 11.0 0.00 0.00 0.00 64 1017.6
20260506192017 67 270 3.0 7.0 0.00 0.00 0.00 63 1017.6
20260506191017 66 248 3.0 8.0 0.00 0.00 0.00 65 1017.8
20260506190018 66 270 5.0 15.0 0.00 0.00 0.00 63 1017.8
20260506185018 66 338 5.0 12.0 0.00 0.00 0.00 66 1017.7
20260506184017 65 270 6.0 20.0 0.00 0.00 0.00 66 1017.8
20260506183017 65 270 8.0 16.0 0.00 0.00 0.00 68 1017.7
20260506182036 65 248 6.0 12.0 0.00 0.00 0.00 70 1017.8
20260506181017 65 248 7.0 15.0 0.00 0.00 0.00 69 1017.5
20260506180017 64 135 4.0 11.0 0.00 0.00 0.00 70 1017.5
20260506175037 64 293 4.0 14.0 0.00 0.00 0.00 72 1017.8
20260506174017 64 270 5.0 16.0 0.00 0.00 0.00 69 1017.8
20260506173018 63 248 6.0 19.0 0.00 0.00 0.00 71 1017.9
20260506172017 64 203 4.0 12.0 0.00 0.00 0.00 72 1017.8
20260506171017 64 0 3.0 11.0 0.00 0.00 0.00 70 1017.7
20260506170017 64 270 3.0 10.0 0.00 0.00 0.00 70 1017.6
20260506165039 64 270 4.0 10.0 0.00 0.00 0.00 71 1017.7
20260506164037 64 315 3.0 10.0 0.00 0.00 0.00 71 1017.8
20260506163017 63 293 1.0 4.0 0.00 0.00 0.00 74 1017.8
20260506162016 60 293 4.0 11.0 0.00 0.00 0.00 77 1017.9
20260506161037 60 23 3.0 12.0 0.00 0.00 0.00 78 1017.9
20260506160017 59 158 4.0 10.0 0.00 0.00 0.00 79 1017.8
20260506155018 60 248 6.0 18.0 0.00 0.00 0.00 78 1017.8
20260506154016 59 248 5.0 17.0 0.00 0.00 0.00 78 1017.5
20260506153017 60 293 6.0 24.0 0.00 0.00 0.00 77 1017.7
20260506152017 61 293 7.0 21.0 0.00 0.00 0.00 75 1017.7
20260506151016 62 270 6.0 14.0 0.00 0.00 0.00 73 1017.7
20260506150019 61 270 4.0 14.0 0.00 0.00 0.00 74 1017.4
20260506145016 61 270 5.0 13.0 0.00 0.00 0.00 73 1017.6
20260506144016 61 225 5.0 13.0 0.00 0.00 0.00 74 1017.4
20260506143016 61 293 4.0 11.0 0.00 0.00 0.00 74 1017.6
20260506142016 60 270 3.0 9.0 0.00 0.00 0.00 75 1017.5
20260506141037 60 293 2.0 6.0 0.00 0.00 0.00 75 1017.4
20260506140117 60 270 3.0 8.0 0.00 0.00 0.00 75 1017.6
20260506135016 60 315 2.0 8.0 0.00 0.00 0.00 74 1017.3
20260506134016 60 293 2.0 6.0 0.00 0.00 0.00 75 1017.2
20260506133016 59 270 2.0 5.0 0.00 0.00 0.00 75 1017.2
20260506132036 59 315 2.0 5.0 0.00 0.00 0.00 75 1017.2
20260506131016 59 293 2.0 5.0 0.00 0.00 0.00 76 1017.1
20260506130016 59 293 2.0 7.0 0.00 0.00 0.00 75 1017.1
20260506125017 59 270 3.0 10.0 0.00 0.00 0.00 75 1017.1
20260506124016 59 293 3.0 7.0 0.00 0.00 0.00 76 1017.0
20260506123036 59 293 2.0 5.0 0.00 0.00 0.00 76 1016.9
20260506122036 59 293 6.0 14.0 0.00 0.00 0.00 76 1016.7
20260506121016 59 270 4.0 9.0 0.00 0.00 0.00 77 1016.5
20260506120016 58 293 3.0 10.0 0.00 0.00 0.00 77 1016.5
20260506115018 59 293 3.0 11.0 0.00 0.00 0.00 78 1016.2
20260506114016 59 270 4.0 12.0 0.00 0.00 0.00 77 1016.3
20260506113036 59 270 4.0 13.0 0.00 0.00 0.00 77 1016.2
20260506112017 59 270 4.0 10.0 0.00 0.00 0.00 77 1016.2
20260506111016 59 248 5.0 13.0 0.00 0.00 0.00 77 1016.1
20260506110016 58 225 3.0 10.0 0.00 0.00 0.00 77 1016.1
20260506105016 59 293 2.0 7.0 0.00 0.00 0.00 76 1015.9
20260506104016 59 270 3.0 11.0 0.00 0.00 0.00 76 1015.8
20260506103015 59 315 3.0 10.0 0.00 0.00 0.00 75 1015.7
20260506102015 59 270 5.0 14.0 0.00 0.00 0.00 76 1015.7
20260506101015 59 293 3.0 7.0 0.00 0.00 0.00 76 1015.6
20260506100017 59 270 4.0 10.0 0.00 0.00 0.00 77 1015.6
20260506095037 59 270 5.0 11.0 0.00 0.00 0.00 77 1015.6
20260506094016 59 270 7.0 18.0 0.00 0.00 0.00 77 1015.4
20260506093015 59 270 4.0 11.0 0.00 0.00 0.00 77 1015.3
20260506092055 59 293 6.0 18.0 0.00 0.00 0.00 77 1015.3
20260506091015 59 270 5.0 26.0 0.00 0.00 0.00 76 1015.3
20260506090016 59 270 5.0 15.0 0.00 0.00 0.00 76 1015.2
20260506085036 59 270 5.0 15.0 0.00 0.00 0.00 76 1014.9
20260506084015 60 270 8.0 18.0 0.00 0.00 0.00 76 1014.8
20260506083036 59 248 6.0 15.0 0.00 0.00 0.00 76 1014.8
20260506082037 59 270 5.0 11.0 0.00 0.00 0.00 76 1014.7
20260506081038 59 158 3.0 8.0 0.00 0.00 0.00 77 1014.9
20260506073017 59 270 5.0 19.0 0.00 0.00 0.00 77 1014.7
20260506072017 59 293 3.0 7.0 0.00 0.00 0.00 77 1014.8
20260506071017 59 315 3.0 9.0 0.00 0.00 0.00 78 1014.6
20260506062017 59 180 2.0 6.0 0.00 0.00 0.00 77 1014.3
20260506061018 59 203 2.0 10.0 0.00 0.00 0.00 78 1014.3
20260506051016 59 113 2.0 7.0 0.00 0.00 0.00 77 1013.7
20260506045017 59 180 2.0 8.0 0.00 0.00 0.00 77 1013.4
20260506044016 59 270 3.0 13.0 0.00 0.00 0.00 77 1013.5
20260506043017 59 248 2.0 9.0 0.00 0.00 0.00 77 1013.4
20260506042016 59 270 2.0 15.0 0.00 0.00 0.00 76 1013.2
20260506041017 59 135 3.0 7.0 0.00 0.00 0.00 76 1013.3
20260506040017 59 135 2.0 8.0 0.00 0.00 0.00 76 1013.1
20260506035017 59 135 2.0 8.0 0.00 0.00 0.00 76 1013.1
20260506034018 60 135 2.0 6.0 0.00 0.00 0.00 75 1012.7
20260506033016 60 180 3.0 10.0 0.00 0.00 0.00 75 1012.5
20260506032017 60 158 2.0 8.0 0.00 0.00 0.00 75 1012.6
20260506031018 60 293 2.0 5.0 0.00 0.00 0.00 74 1012.5
20260506030036 61 270 4.0 15.0 0.00 0.00 0.00 73 1012.3
20260506025037 61 270 3.0 7.0 0.00 0.00 0.00 72 1012.1
20260506024017 62 270 2.0 11.0 0.00 0.00 0.00 72 1012.1
20260506023016 62 293 4.0 7.0 0.00 0.00 0.00 71 1012.0
20260506022036 62 158 3.0 13.0 0.00 0.00 0.00 71 1011.9
20260506021016 63 270 5.0 12.0 0.00 0.00 0.00 69 1011.8
20260506020016 63 293 5.0 12.0 0.00 0.00 0.00 68 1011.7
20260506015016 64 270 4.0 13.0 0.00 0.00 0.00 68 1011.5
20260506014036 64 180 5.0 15.0 0.00 0.00 0.00 67 1011.5
20260506013016 64 293 5.0 11.0 0.00 0.00 0.00 67 1011.3
20260506012018 65 248 4.0 18.0 0.00 0.00 0.00 66 1011.4
20260506011017 65 293 5.0 14.0 0.00 0.00 0.00 66 1011.2
20260506010017 65 248 6.0 17.0 0.00 0.00 0.00 65 1011.0
20260506005057 65 293 5.0 13.0 0.00 0.00 0.00 66 1011.1
20260506004016 66 270 5.0 17.0 0.00 0.00 0.00 65 1011.0
20260506003016 66 270 6.0 18.0 0.00 0.00 0.00 65 1011.0
20260506002016 66 270 8.0 24.0 0.00 0.00 0.00 64 1011.0
20260506001016 67 248 4.0 15.0 0.00 0.00 0.00 64 1011.0
20260506000016 67 270 5.0 17.0 0.00 0.00 0.00 63 1011.2
20260505235016 67 293 5.0 16.0 0.00 0.00 0.00 64 1011.2
20260505234016 67 248 7.0 23.0 0.00 0.00 0.00 62 1011.2
20260505233016 68 270 6.0 12.0 0.00 0.00 0.00 61 1011.4
20260505232017 68 270 5.0 16.0 0.00 0.00 0.00 63 1011.5
20260505231016 68 270 8.0 18.0 0.00 0.00 0.00 61 1011.5
20260505230016 68 270 7.0 15.0 0.00 0.00 0.00 61 1011.7
20260505225016 68 293 5.0 13.0 0.00 0.00 0.00 61 1011.6
20260505224016 68 315 5.0 15.0 0.00 0.00 0.00 62 1011.9
20260505223017 69 338 4.0 14.0 0.00 0.00 0.00 64 1012.1
20260505222015 68 248 5.0 23.0 0.00 0.00 0.00 60 1012.0
20260505221015 68 270 9.0 18.0 0.00 0.00 0.00 61 1012.1
20260505220015 68 248 6.0 17.0 0.00 0.00 0.00 63 1012.2
20260505215015 68 270 6.0 18.0 0.00 0.00 0.00 63 1012.3
20260505214016 68 270 6.0 15.0 0.00 0.00 0.00 61 1012.3
20260505213015 67 248 7.0 18.0 0.00 0.00 0.00 62 1012.2
20260505212016 68 248 6.0 15.0 0.00 0.00 0.00 63 1012.6
20260505211016 68 270 6.0 13.0 0.00 0.00 0.00 61 1012.5
20260505210035 68 270 6.0 18.0 0.00 0.00 0.00 63 1012.5
20260505205035 67 270 6.0 16.0 0.00 0.00 0.00 61 1012.6